GW2280 Weather Reports


Display with metric or nautical units.
time (UTC)temp
F
wind
direction
speed
MPH
gust
MPH
rain 1hr
in
rain 24hr
in
rain mn
in
humidity
%
barometer
mb
20260507234531 52 279 9.0 15.0 0.00 0.06 0.01 44 1007.1
20260507234012 53 224 8.0 14.0 0.00 0.06 0.01 43 1007.1
20260507233511 53 257 7.0 19.0 0.00 0.06 0.01 45 1007.2
20260507233030 53 239 9.0 20.0 0.00 0.06 0.01 43 1007.1
20260507232512 53 287 10.0 22.0 0.00 0.06 0.01 43 1007.1
20260507232011 54 296 9.0 22.0 0.00 0.06 0.01 43 1007.1
20260507231533 54 265 11.0 22.0 0.00 0.06 0.01 41 1007.0
20260507231010 54 274 10.0 25.0 0.00 0.06 0.01 40 1006.9
20260507230513 55 302 11.0 25.0 0.00 0.06 0.01 39 1006.9
20260507230038 55 281 13.0 24.0 0.00 0.06 0.01 39 1006.7
20260507225511 56 288 12.0 26.0 0.00 0.06 0.01 38 1006.9
20260507225015 56 298 12.0 26.0 0.00 0.06 0.01 38 1006.8
20260507224533 56 277 8.0 15.0 0.00 0.06 0.01 39 1006.7
20260507224011 55 245 6.0 15.0 0.00 0.06 0.01 39 1006.7
20260507223515 55 287 7.0 16.0 0.00 0.06 0.01 41 1006.7
20260507223031 56 267 9.0 17.0 0.00 0.06 0.01 39 1006.6
20260507222511 56 256 10.0 17.0 0.00 0.06 0.01 40 1006.6
20260507222012 56 236 10.0 20.0 0.00 0.06 0.01 39 1006.7
20260507221530 56 284 9.0 21.0 0.00 0.06 0.01 39 1006.6
20260507221012 56 277 9.0 21.0 0.00 0.06 0.01 39 1006.5
20260507220511 57 265 10.0 19.0 0.00 0.06 0.01 38 1006.6
20260507220035 57 257 13.0 25.0 0.00 0.06 0.01 37 1006.5
20260507215512 58 246 13.0 26.0 0.00 0.08 0.01 36 1006.5
20260507215013 58 274 14.0 26.0 0.00 0.08 0.01 38 1006.6
20260507214532 58 261 10.0 22.0 0.00 0.08 0.01 37 1006.5
20260507214011 58 303 8.0 24.0 0.00 0.08 0.01 38 1006.6
20260507213511 58 261 10.0 24.0 0.00 0.08 0.01 37 1006.5
20260507213030 58 281 13.0 24.0 0.00 0.08 0.01 38 1006.5
20260507212513 58 272 11.0 23.0 0.00 0.08 0.01 39 1006.6
20260507212012 58 302 14.0 23.0 0.00 0.08 0.01 36 1006.6
20260507211538 58 290 11.0 22.0 0.00 0.08 0.01 35 1006.5
20260507211011 58 315 13.0 22.0 0.00 0.08 0.01 39 1006.4
20260507210511 58 321 10.0 20.0 0.00 0.08 0.01 38 1006.5
20260507210033 58 263 7.0 20.0 0.00 0.08 0.01 40 1006.5
20260507205513 58 269 9.0 20.0 0.00 0.17 0.01 40 1006.5
20260507205012 58 286 10.0 25.0 0.00 0.17 0.01 39 1006.5
20260507204529 58 254 12.0 26.0 0.00 0.17 0.01 40 1006.3
20260507204012 58 260 13.0 28.0 0.00 0.17 0.01 38 1006.1
20260507203512 58 279 9.0 28.0 0.00 0.17 0.01 40 1006.3
20260507203036 58 281 15.0 23.0 0.00 0.17 0.01 37 1006.4
20260507202509 59 284 13.0 27.0 0.00 0.17 0.01 36 1006.4
20260507202009 59 221 13.0 29.0 0.00 0.17 0.01 36 1006.4
20260507201529 59 317 17.0 29.0 0.00 0.17 0.01 36 1006.3
20260507201013 59 275 14.0 28.0 0.00 0.17 0.01 38 1006.3
20260507200514 59 247 11.0 22.0 0.00 0.17 0.01 41 1006.4
20260507200031 59 284 8.0 26.0 0.00 0.17 0.01 39 1006.4
20260507195514 59 275 14.0 30.0 0.00 0.24 0.01 39 1006.5
20260507195012 59 275 11.0 30.0 0.00 0.24 0.01 38 1006.4
20260507194532 59 270 10.0 26.0 0.00 0.24 0.01 38 1006.5
20260507194012 60 330 14.0 27.0 0.00 0.24 0.01 38 1006.4
20260507193510 60 223 15.0 27.0 0.00 0.24 0.01 38 1006.4
20260507193034 60 263 12.0 24.0 0.00 0.24 0.01 37 1006.5
20260507192511 60 263 10.0 24.0 0.00 0.24 0.01 38 1006.2
20260507192011 60 288 14.0 23.0 0.00 0.24 0.01 39 1006.4
20260507191533 60 308 9.0 25.0 0.00 0.24 0.01 39 1006.5
20260507191011 60 339 15.0 25.0 0.00 0.24 0.01 38 1006.5
20260507190511 60 275 8.0 24.0 0.00 0.24 0.01 44 1006.6
20260507190028 60 309 10.0 24.0 0.00 0.24 0.01 41 1006.7
20260507185509 60 266 12.0 25.0 0.00 0.49 0.01 42 1006.7
20260507185013 60 290 11.0 27.0 0.00 0.49 0.01 42 1006.7
20260507184530 60 314 11.0 27.0 0.00 0.49 0.01 43 1006.6
20260507184010 60 298 11.0 23.0 0.00 0.49 0.01 42 1006.6
20260507183512 60 247 13.0 26.0 0.00 0.49 0.01 42 1006.7
20260507183041 60 284 11.0 26.0 0.00 0.49 0.01 43 1006.7
20260507182512 60 272 12.0 28.0 0.00 0.49 0.01 42 1006.6
20260507182014 59 281 12.0 28.0 0.00 0.49 0.01 40 1006.6
20260507181531 60 240 14.0 25.0 0.00 0.49 0.01 41 1006.6
20260507181012 60 229 11.0 25.0 0.00 0.49 0.01 42 1006.7
20260507180510 60 313 14.0 25.0 0.00 0.49 0.01 41 1006.7
20260507180034 60 271 8.0 25.0 0.00 0.49 0.01 44 1006.6
20260507175516 59 302 10.0 25.0 0.00 0.50 0.01 41 1006.7
20260507175012 60 275 11.0 24.0 0.00 0.50 0.01 45 1006.7
20260507174529 59 239 14.0 24.0 0.00 0.50 0.01 44 1006.7
20260507174011 58 269 13.0 24.0 0.00 0.50 0.01 46 1006.7
20260507173511 58 281 11.0 24.0 0.00 0.50 0.01 45 1006.9
20260507173029 58 280 13.0 24.0 0.00 0.50 0.01 49 1006.9
20260507172510 58 287 13.0 22.0 0.00 0.50 0.01 51 1006.8
20260507172010 58 289 13.0 28.0 0.00 0.50 0.01 54 1007.0
20260507171527 58 338 14.0 28.0 0.00 0.50 0.01 55 1007.0
20260507171012 57 263 11.0 23.0 0.00 0.50 0.01 53 1007.2
20260507170513 57 283 12.0 23.0 0.00 0.50 0.01 54 1007.2
20260507170028 57 281 11.0 20.0 0.00 0.50 0.01 55 1007.2
20260507165513 57 288 9.0 19.0 0.00 0.50 0.01 58 1007.2
20260507165012 56 273 11.0 19.0 0.00 0.50 0.01 58 1007.3
20260507164538 56 288 11.0 22.0 0.00 0.50 0.01 58 1007.4
20260507164010 56 279 10.0 23.0 0.00 0.50 0.01 62 1007.4
20260507163511 57 294 13.0 23.0 0.00 0.50 0.01 59 1007.6
20260507163037 57 283 14.0 25.0 0.00 0.50 0.01 61 1007.2
20260507162513 56 291 14.0 25.0 0.00 0.50 0.01 61 1007.4
20260507162012 56 304 10.0 20.0 0.00 0.50 0.01 61 1007.4
20260507161539 56 278 11.0 21.0 0.00 0.50 0.01 59 1007.4
20260507161011 58 324 11.0 21.0 0.00 0.50 0.01 59 1007.5
20260507160511 57 308 13.0 21.0 0.00 0.50 0.01 58 1007.5
20260507160040 57 306 9.0 21.0 0.00 0.50 0.01 60 1007.6
20260507155511 57 246 11.0 23.0 0.00 0.50 0.01 60 1007.6
20260507155013 56 292 14.0 23.0 0.00 0.50 0.01 59 1007.8
20260507154531 55 298 9.0 20.0 0.00 0.50 0.01 63 1007.8
20260507154012 55 336 10.0 20.0 0.00 0.50 0.01 63 1007.8
20260507153512 55 360 6.0 18.0 0.00 0.50 0.01 64 1008.1
20260507153033 55 360 10.0 22.0 0.00 0.50 0.01 62 1008.1
20260507152512 55 360 11.0 22.0 0.00 0.50 0.01 63 1008.1
20260507152012 56 360 13.0 22.0 0.00 0.50 0.01 63 1008.2
20260507151532 56 338 12.0 22.0 0.00 0.50 0.01 63 1008.2
20260507151013 56 254 9.0 19.0 0.00 0.50 0.01 66 1008.1
20260507150513 56 319 11.0 22.0 0.00 0.50 0.01 64 1008.2
20260507150031 55 319 13.0 27.0 0.00 0.50 0.01 63 1008.1
20260507145510 55 304 15.0 27.0 0.00 0.50 0.01 62 1008.2
20260507145010 55 277 11.0 23.0 0.00 0.50 0.01 65 1008.2
20260507144535 55 308 12.0 23.0 0.00 0.50 0.01 63 1007.9
20260507144014 55 297 12.0 24.0 0.00 0.50 0.01 62 1007.8
20260507143512 55 360 12.0 24.0 0.00 0.50 0.01 63 1007.8
20260507143031 55 360 11.0 24.0 0.00 0.50 0.01 65 1007.9
20260507142512 55 360 12.0 23.0 0.00 0.50 0.01 66 1007.8
20260507142010 55 360 11.0 21.0 0.00 0.50 0.01 64 1007.9
20260507141530 55 360 8.0 21.0 0.00 0.50 0.01 69 1007.9
20260507141011 55 360 8.0 15.0 0.00 0.50 0.01 68 1008.0
20260507140512 54 360 8.0 15.0 0.00 0.50 0.01 70 1008.1
20260507140030 54 360 8.0 15.0 0.00 0.50 0.01 68 1008.1
20260507135513 54 360 5.0 13.0 0.00 0.50 0.01 71 1008.0
20260507135014 54 360 6.0 14.0 0.00 0.50 0.01 69 1008.1
20260507134531 54 360 6.0 14.0 0.00 0.50 0.01 70 1008.1
20260507134011 54 360 7.0 13.0 0.00 0.50 0.01 69 1008.2
20260507133512 54 360 8.0 13.0 0.00 0.50 0.01 70 1008.2
20260507133032 54 360 7.0 13.0 0.00 0.50 0.01 69 1008.3
20260507132514 54 360 4.0 13.0 0.00 0.50 0.01 72 1008.4
20260507132013 53 360 5.0 13.0 0.00 0.50 0.01 73 1008.3
20260507131534 53 360 7.0 13.0 0.00 0.50 0.01 75 1008.3
20260507131014 53 360 5.0 12.0 0.00 0.50 0.01 75 1008.4
20260507130518 52 360 5.0 12.0 0.00 0.50 0.01 77 1008.3
20260507130029 52 360 3.0 11.0 0.00 0.50 0.01 76 1008.3
20260507125513 51 360 4.0 11.0 0.00 0.50 0.01 79 1008.4
20260507125014 51 0 5.0 12.0 0.00 0.50 0.01 79 1008.5
20260507124546 50 360 3.0 12.0 0.00 0.50 0.01 80 1008.5
20260507124014 50 360 6.0 12.0 0.00 0.50 0.01 82 1008.5
20260507123514 49 360 8.0 13.0 0.00 0.50 0.01 83 1008.5
20260507123033 49 360 4.0 13.0 0.00 0.50 0.01 85 1008.5
20260507122511 49 360 4.0 12.0 0.00 0.50 0.01 86 1008.5
20260507122013 48 0 6.0 12.0 0.00 0.50 0.01 86 1008.5
20260507121535 47 360 6.0 10.0 0.00 0.50 0.01 90 1008.5
20260507121015 47 360 6.0 10.0 0.00 0.50 0.01 90 1008.5
20260507120515 47 360 6.0 12.0 0.00 0.50 0.01 91 1008.5
20260507120029 46 360 7.0 12.0 0.00 0.50 0.01 92 1008.5
20260507115513 46 360 6.0 12.0 0.00 0.50 0.01 94 1008.5
20260507115019 46 360 5.0 10.0 0.00 0.50 0.01 95 1008.6
20260507114530 46 0 3.0 9.0 0.00 0.50 0.01 95 1008.6
20260507114012 45 360 4.0 9.0 0.00 0.50 0.01 96 1008.5
20260507113515 45 360 5.0 9.0 0.00 0.50 0.01 96 1008.5
20260507113029 45 360 3.0 9.0 0.00 0.50 0.01 96 1008.4
20260507112517 44 360 3.0 6.0 0.00 0.50 0.01 96 1008.4
20260507112012 44 360 2.0 6.0 0.00 0.50 0.01 96 1008.4
20260507111530 44 360 3.0 6.0 0.00 0.50 0.01 96 1008.3
20260507111013 44 360 2.0 4.0 0.00 0.50 0.01 96 1008.2
20260507110513 44 360 2.0 5.0 0.00 0.50 0.01 96 1008.3
20260507110031 44 360 2.0 5.0 0.00 0.50 0.01 96 1008.5
20260507105511 44 360 2.0 5.0 0.00 0.50 0.01 96 1008.5
20260507105011 44 360 3.0 6.0 0.00 0.50 0.01 96 1008.6
20260507104530 44 360 2.0 6.0 0.00 0.50 0.01 96 1008.6
20260507104017 44 360 3.0 8.0 0.00 0.50 0.01 96 1008.5
20260507103512 44 360 4.0 9.0 0.00 0.50 0.01 96 1008.0
20260507103029 44 360 4.0 9.0 0.00 0.50 0.01 96 1008.3
20260507102510 44 360 5.0 9.0 0.00 0.50 0.01 96 1008.7
20260507102012 44 360 5.0 9.0 0.00 0.50 0.01 96 1008.7
20260507101531 44 360 4.0 9.0 0.00 0.50 0.01 96 1008.3
20260507101010 44 360 6.0 10.0 0.00 0.50 0.01 96 1008.5
20260507100512 44 360 4.0 10.0 0.00 0.50 0.01 96 1008.4
20260507100029 44 360 6.0 10.0 0.00 0.50 0.01 96 1008.6
20260507095510 44 360 5.0 9.0 0.00 0.50 0.01 96 1008.3
20260507095013 44 360 4.0 8.0 0.00 0.50 0.01 96 1008.6
20260507094530 44 360 3.0 8.0 0.00 0.50 0.01 96 1008.3
20260507094009 44 360 3.0 8.0 0.00 0.50 0.01 96 1008.5
20260507093515 44 360 5.0 8.0 0.00 0.50 0.01 96 1008.5
20260507093035 44 360 3.0 8.0 0.00 0.50 0.01 96 1008.3
20260507092512 44 360 3.0 8.0 0.00 0.50 0.01 96 1008.4
20260507092011 44 360 4.0 10.0 0.00 0.50 0.01 96 1008.2
20260507091539 44 360 4.0 11.0 0.00 0.50 0.01 96 1008.0
20260507091015 44 360 5.0 11.0 0.00 0.50 0.01 96 1007.9
20260507090510 44 360 6.0 13.0 0.00 0.50 0.01 96 1007.6
20260507090029 44 360 6.0 13.0 0.00 0.50 0.01 96 1007.8
20260507085511 44 360 6.0 13.0 0.00 0.50 0.01 96 1007.6
20260507085012 44 360 6.0 15.0 0.00 0.50 0.01 96 1007.6
20260507084533 44 360 8.0 15.0 0.00 0.50 0.01 96 1007.9
20260507084011 44 360 7.0 15.0 0.00 0.50 0.01 96 1008.0
20260507083511 44 360 6.0 13.0 0.00 0.50 0.01 96 1007.8
20260507083030 44 360 5.0 13.0 0.00 0.50 0.01 96 1007.6
20260507082510 45 360 7.0 13.0 0.00 0.50 0.01 96 1007.8
20260507082009 45 360 6.0 12.0 0.00 0.50 0.01 96 1008.1
20260507081529 45 360 6.0 12.0 0.00 0.50 0.01 96 1008.0
20260507081011 45 360 7.0 12.0 0.00 0.50 0.01 96 1008.0
20260507080513 45 360 7.0 14.0 0.00 0.50 0.01 96 1007.8
20260507080028 45 360 8.0 14.0 0.00 0.50 0.01 96 1007.4
20260507075511 45 360 8.0 14.0 0.00 0.50 0.01 96 1007.3
20260507075011 45 360 7.0 14.0 0.00 0.50 0.01 96 1007.3
20260507074532 45 360 8.0 14.0 0.00 0.50 0.01 96 1007.7
20260507074013 45 360 6.0 12.0 0.00 0.50 0.01 96 1007.8
20260507073509 45 360 6.0 12.0 0.00 0.50 0.01 96 1007.4
20260507073030 45 360 6.0 13.0 0.00 0.50 0.01 96 1007.3
20260507072510 45 360 7.0 15.0 0.00 0.50 0.01 96 1007.4
20260507072011 45 360 8.0 16.0 0.00 0.50 0.01 96 1007.3
20260507071531 45 360 8.0 16.0 0.00 0.50 0.01 96 1007.4
20260507071011 45 360 5.0 14.0 0.00 0.50 0.01 96 1007.4
20260507070512 45 360 8.0 14.0 0.00 0.50 0.01 96 1007.4
20260507070031 45 360 9.0 17.0 0.00 0.50 0.01 96 1007.2
20260507065511 46 360 9.0 17.0 0.00 0.50 0.01 96 1007.2
20260507065012 46 360 7.0 14.0 0.00 0.50 0.01 96 1007.3
20260507064529 46 360 10.0 15.0 0.00 0.50 0.01 96 1007.4
20260507064011 46 360 9.0 15.0 0.00 0.50 0.01 96 1007.3
20260507063513 46 360 7.0 18.0 0.00 0.50 0.01 96 1006.8
20260507063040 46 360 8.0 18.0 0.00 0.50 0.01 96 1007.1
20260507062509 46 360 9.0 16.0 0.00 0.50 0.01 96 1006.9
20260507062011 46 360 7.0 15.0 0.00 0.50 0.01 97 1007.0
20260507061533 46 360 8.0 15.0 0.00 0.50 0.01 97 1007.1
20260507061009 46 360 5.0 11.0 0.00 0.50 0.01 97 1007.0
20260507060509 47 360 5.0 11.0 0.00 0.50 0.01 96 1006.7
20260507060039 47 360 6.0 11.0 0.01 0.50 0.01 97 1006.8
20260507055512 47 360 6.0 11.0 0.01 0.50 0.01 97 1006.6
20260507055012 47 360 7.0 12.0 0.01 0.50 0.01 96 1006.6
20260507054527 47 360 5.0 12.0 0.01 0.50 0.01 96 1006.6
20260507054012 47 360 6.0 15.0 0.01 0.50 0.01 97 1006.7
20260507053510 47 360 8.0 15.0 0.01 0.50 0.01 97 1006.6
20260507053030 47 360 8.0 15.0 0.01 0.50 0.01 97 1006.8
20260507052514 47 360 7.0 14.0 0.01 0.50 0.01 97 1006.8
20260507052012 47 360 6.0 14.0 0.01 0.50 0.01 96 1006.7
20260507051529 47 360 7.0 14.0 0.01 0.50 0.01 96 1006.5
20260507051009 47 360 8.0 14.0 0.01 0.50 0.01 96 1006.3
20260507050513 47 360 9.0 17.0 0.01 0.50 0.01 96 1006.5
20260507050035 48 360 9.0 17.0 0.00 0.49 0.00 96 1006.8
20260507045510 48 360 8.0 16.0 0.00 0.49 0.00 96 1006.6
20260507045011 48 360 7.0 16.0 0.00 0.49 0.00 96 1006.7
20260507044530 48 360 8.0 18.0 0.00 0.49 0.00 96 1006.6
20260507044011 48 360 9.0 18.0 0.01 0.49 0.00 96 1006.8
20260507043513 48 360 9.0 18.0 0.02 0.49 0.00 96 1006.6
20260507043032 49 360 10.0 21.0 0.02 0.49 0.00 96 1006.4
20260507042514 49 360 10.0 21.0 0.02 0.49 0.00 96 1006.3
20260507042012 49 360 13.0 18.0 0.02 0.49 0.00 96 1006.2
20260507041529 49 360 10.0 17.0 0.02 0.49 0.00 96 1006.2
20260507041013 50 360 10.0 16.0 0.02 0.49 0.00 97 1006.2
20260507040514 50 360 9.0 17.0 0.02 0.49 0.00 97 1006.2
20260507040031 50 360 10.0 21.0 0.02 0.49 0.00 97 1006.1
20260507035516 50 360 11.0 21.0 0.02 0.49 0.49 97 1006.1
20260507035015 51 360 11.0 26.0 0.02 0.49 0.49 97 1006.4
20260507034537 51 360 11.0 26.0 0.02 0.49 0.49 97 1006.4
20260507034014 51 360 13.0 26.0 0.01 0.48 0.48 97 1006.3
20260507033516 51 360 13.0 26.0 0.01 0.47 0.47 97 1006.2
20260507033032 52 360 13.0 26.0 0.01 0.47 0.47 97 1006.3
20260507032512 52 360 13.0 26.0 0.01 0.47 0.47 97 1006.6
20260507032014 52 360 15.0 26.0 0.01 0.47 0.47 97 1006.5
20260507031530 52 360 15.0 24.0 0.02 0.47 0.47 97 1006.3
20260507031013 52 360 14.0 23.0 0.02 0.47 0.47 97 1006.2
20260507030511 53 360 10.0 19.0 0.03 0.47 0.47 97 1006.2
20260507030032 53 360 11.0 19.0 0.03 0.47 0.47 97 1006.2
20260507025513 53 360 8.0 17.0 0.03 0.47 0.47 97 1006.1
20260507025014 54 360 9.0 18.0 0.03 0.47 0.47 97 1006.1
20260507024529 54 360 11.0 18.0 0.03 0.47 0.47 97 1006.2
20260507024017 54 360 12.0 18.0 0.03 0.47 0.47 97 1006.3
20260507023513 54 360 9.0 18.0 0.02 0.46 0.46 97 1006.3
20260507023029 55 360 12.0 19.0 0.02 0.46 0.46 97 1006.2
20260507022515 55 360 9.0 21.0 0.02 0.46 0.46 97 1006.2
20260507022016 56 360 10.0 21.0 0.02 0.46 0.46 97 1006.3
20260507021532 57 295 6.0 17.0 0.01 0.45 0.45 98 1006.2
20260507021014 57 234 7.0 17.0 0.01 0.45 0.45 98 1006.1
20260507020513 57 225 9.0 17.0 0.00 0.44 0.44 98 1006.1
20260507020040 57 248 9.0 19.0 0.00 0.44 0.44 98 1006.2
20260507015514 57 215 8.0 19.0 0.00 0.44 0.44 98 1006.1
20260507015013 57 186 9.0 19.0 0.00 0.44 0.44 98 1006.1
20260507014532 57 285 8.0 17.0 0.00 0.44 0.44 98 1006.1
20260507014012 57 225 8.0 22.0 0.00 0.44 0.44 98 1006.2
20260507013512 57 198 9.0 22.0 0.00 0.44 0.44 98 1006.2
20260507013045 57 232 6.0 17.0 0.00 0.44 0.44 98 1006.3
20260507012549 57 229 6.0 17.0 0.00 0.44 0.44 98 1006.3
20260507012013 57 249 7.0 17.0 0.00 0.44 0.44 98 1006.3
20260507011529 57 236 8.0 16.0 0.00 0.44 0.44 98 1006.4
20260507011014 57 220 9.0 18.0 0.00 0.44 0.44 98 1006.4
20260507010512 57 263 11.0 18.0 0.00 0.44 0.44 98 1006.3
20260507010036 57 232 8.0 18.0 0.00 0.44 0.44 98 1006.4
20260507005516 57 221 10.0 18.0 0.00 0.44 0.44 98 1006.4
20260507005011 57 228 9.0 18.0 0.00 0.44 0.44 97 1006.4
20260507004530 57 255 6.0 18.0 0.00 0.44 0.44 97 1006.4
20260507004011 57 229 5.0 16.0 0.00 0.44 0.44 97 1006.5
20260507003515 57 228 9.0 16.0 0.00 0.44 0.44 97 1006.4
20260507003031 57 216 6.0 19.0 0.00 0.44 0.44 97 1006.4
20260507002513 57 196 7.0 19.0 0.00 0.44 0.44 97 1006.2
20260507002013 57 194 10.0 19.0 0.00 0.44 0.44 97 1006.3
20260507001533 57 214 7.0 19.0 0.00 0.44 0.44 97 1006.2
20260507001014 57 204 8.0 19.0 0.00 0.44 0.44 98 1006.2
20260507000514 57 235 10.0 19.0 0.00 0.44 0.44 97 1006.2
20260507000029 57 212 11.0 19.0 0.00 0.44 0.44 97 1006.2
20260506235513 57 213 8.0 17.0 0.00 0.44 0.44 97 1006.1
20260506235014 57 207 8.0 21.0 0.00 0.44 0.44 97 1006.2